Printer-friendly version

IAU Minor Planet Center

Minor Planet Center

MPEC 2005-V61 : COMET C/2005 Q1 (LINEAR)

The following Minor Planet Electronic Circular may be linked-to from your own Web pages, but must not otherwise be redistributed electronically.


Read MPEC 2005-V60 Read MPEC 2005-V62


M.P.E.C. 2005-V61                                Issued 2005 Nov. 8, 22:32 UT

     The Minor Planet Electronic Circulars contain information on unusual
         minor planets and routine data on comets.  They are published
   on behalf of Commission 20 of the International Astronomical Union by the
          Minor Planet Center, Smithsonian Astrophysical Observatory,
                          Cambridge, MA 02138, U.S.A.

                  Supported in part by the Brinson Foundation
                  Supported in part by the TABASGO Foundation
             Prepared using the Tamkin Foundation Computer Network

                              MPC@CFA.HARVARD.EDU
          URL http://cfa-www.harvard.edu/iau/mpc.html  ISSN 1523-6714

                           COMET C/2005 Q1 (LINEAR)

Observations:
    CK05Q010  C2005 10 26.86659 04 20 22.41 +75 35 40.8          18.2 T EV061215
    CK05Q010  C2005 11 07.62185 03 39 09.80 +76 52 01.5                 EV061349
    CK05Q010  C2005 11 07.62546 03 39 08.86 +76 52 02.4          18.5 T EV061349

Observer details:
215 Buchloe.  Observer W. Hasubick.  0.44-m f/4.6 reflector + CCD.
349 Ageo.  Observer K. Kadota.  0.25-m f/5.0 reflector + CCD.

Orbital elements:
    C/2005 Q1 (LINEAR)
T 2005 Aug. 24.4436 TT                                  MPC
q   6.405686             (2000.0)            P               Q
                   Peri.   44.5985      +0.2121070      +0.1584771
                   Node    87.7215      +0.3765238      -0.9238333
e   1.0            Incl.  105.1874      +0.9017985      +0.3484494
From 74 observations 2005 Aug. 27-Nov. 7.

Brian G. Marsden             (C) Copyright 2005 MPC           M.P.E.C. 2005-V61

Read MPEC 2005-V60 Read MPEC 2005-V62


Our Web policy. Index to the CBAT/MPC/ICQ pages.


Valid HTML 4.01!